OpenBCM V1.08-5-g2f4a (Linux)

Packet Radio Mailbox

IZ3LSV

[San Dona' di P. JN]

 Login: GUEST





  
LU9DCE > KEP      15.12.19 17:32l 247 Lines 12250 Bytes #999 (0) @ WW
BID : 5233_LU9DCE
Read: GUEST
Subj: TLE 15 12
Path: IZ3LSV<IQ5KG<I0OJJ<EA2RCF<LU9DCE
Sent: 191215/1600Z 5233@LU9DCE.TOR.BA.ARG.SOAM LinBPQ6.0.19

            __    _  _  ___  ____   ___  ____    ____  ____  ____
           (  )  / )( \/ _ \(    \ / __)(  __)  (  _ \(  _ \/ ___)
           / (_/\) \/ (\__  )) D (( (__  ) _)    ) _ ( ) _ (\___ \
           \____/\____/(___/(____/ \___)(____)  (____/(____/(____/
               ESTACION DE PACKET RADIO - BUENOS AIRES (GF05OM)
                   BOLETINES INFORMATIVOS PROGRAMADOS (BIP)
                      LINUX - HELLOCODELINUX@GMAIL.COM
+----------------------------------------------------------------------------+
OSCAR 7
1  7530U 74089B   19348.55787491 -.00000044  00000-0  47629-5 0  9996
2  7530 101.7725 314.5521 0012352   3.4157 132.3295 12.53641181 62931
OSCAR 11 (UoSAT 2)
1 14781U 84021B   19348.75898298 +.00000076 +00000-0 +15356-4 0  9994
2 14781 097.5992 004.8896 0010010 091.7314 268.5047 14.83127551904301
OSCAR 19 (LUSAT)
1 20442U 90005G   19349.12403086 -.00000006  00000-0  14305-4 0  9990
2 20442  98.6700 290.9821 0011528 346.1974  13.8893 14.32940440562079
EYESAT A
1 22825U 93061C   19348.89369574 -.00000015 +00000-0 +12289-4 0  9997
2 22825 098.9165 341.7433 0008166 190.4973 169.6039 14.30073455367291
ITAMSAT
1 22826U 93061D   19348.71367625 -.00000022  00000-0  93712-5 0  9993
2 22826  98.9105 341.5283 0008881 179.7957 180.3230 14.30407898367748
RADIO ROSTO
1 23439U 94085A   19348.84808822 -.00000048 +00000-0 -14955-3 0  9993
2 23439 064.8129 186.4047 0145887 078.1254 283.5987 11.27569336028097
JAS 2
1 24278U 96046B   19348.79123652 -.00000056  00000-0 -23369-4 0  9998
2 24278  98.5634 118.1463 0351008 135.6688 227.3137 13.53095061152026
TECHSAT 1B
1 25397U 98043D   19349.11643619 -.00000006  00000-0  16826-4 0  9991
2 25397  98.7086 287.2274 0000642 178.8069 181.3111 14.23675996113406
ISS (ZARYA)
1 25544U 98067A   19349.42525220  .00000042  00000-0  87554-5 0  9998
2 25544  51.6423 182.8009 0007476  37.6577  32.9875 15.50118780203375
PCSAT
1 26931U 01043C   19349.24930531 -.00000006  00000-0  29491-4 0  9998
2 26931  67.0515 260.3281 0007117 264.2031  95.8259 14.30561654950651
SAUDISAT 1C
1 27607U 02058C   19349.14749628 -.00000035  00000-0  15858-4 0  9994
2 27607  64.5545 220.9273 0069684 221.1125 138.4715 14.75595187913515
CUTE-1
1 27844U 03031E   19348.84356241 +.00000025 +00000-0 +31062-4 0  9993
2 27844 098.6835 354.3755 0009061 228.9060 131.1336 14.22210701853713
CUBESAT XI 4
1 27848U 03031J   19348.88691341 +.00000018 +00000-0 +27926-4 0  9990
2 27848 098.6909 354.9525 0008817 241.7463 118.2824 14.21801513853576
MOZHAYETS 4
1 27939U 03042A   19349.38881154  .00000024  00000-0  12915-4 0  9991
2 27939  98.0650 121.9876 0012264 214.1658 145.8760 14.66823408866885
CUBESAT XI 5
1 28895U 05043F   19348.82016298  .00000112  00000-0  30338-4 0  9990
2 28895  97.9835 125.6970 0017641 143.2343 217.0074 14.63720338753681
CUTE-1.7+APD II
1 32785U 08021C   19348.85425422  .00000176  00000-0  24605-4 0  9998
2 32785  97.5591 340.2132 0013908  34.4308 325.7808 14.88388715630332
DELFI C3
1 32789U 08021G   19348.88073848 +.00001361 +00000-0 +94012-4 0  9992
2 32789 097.4432 032.9567 0011161 226.7343 133.2955 15.07321348633856
SEEDS
1 32791U 08021J   19348.43537412 +.00000223 +00000-0 +27927-4 0  9995
2 32791 097.5323 345.9261 0013476 009.1351 351.0111 14.90931275630667
YUBELEINY
1 32953U 08025A   19349.04311608  .00000037  00000-0  19437-3 0  9993
2 32953  82.5054  33.2235 0020408  98.9864 261.3530 12.43092897524594
PRISM (HITOMI)
1 33493U 09002B   19348.62820050  .00000977  00000-0  90688-4 0  9999
2 33493  98.1304 276.4183 0013979 315.7667  44.2435 14.96841901591914
KKS-1 (KISEKI)
1 33499U 09002H   19348.91237686 +.00000068 +00000-0 +18059-4 0  9997
2 33499 098.3337 193.2183 0009175 004.0569 356.0712 14.75487935585225
SWISSCUBE
1 35932U 09051B   19348.71568994 +.00000108 +00000-0 +35462-4 0  9994
2 35932 098.5996 160.1160 0007210 344.4937 015.6037 14.56339403542796
BEESAT
1 35933U 09051C   19349.46382230  .00000073  00000-0  27603-4 0  9994
2 35933  98.6008 162.7142 0005653 358.4137   1.7041 14.56421845543059
ITUPSAT 1
1 35935U 09051E   19348.93814116  .00000054  00000-0  23667-4 0  9995
2 35935  98.6117 162.3946 0007924 354.9533   5.1582 14.55574540542714
XIWANG-1 (HOPE-1)
1 36122U 09072B   19348.72656514 -.00000031 +00000-0 +29226-4 0  9993
2 36122 100.0805 342.7387 0006956 293.1732 066.8650 13.16352523480438
TISAT 1
1 36799U 10035E   19348.91423009 +.00000348 +00000-0 +41132-4 0  9996
2 36799 098.1750 147.2812 0011589 213.2953 146.7536 14.91225306511271
JUGNU
1 37839U 11058B   19349.15415873  .00000306  00000-0  21336-4 0  9993
2 37839  19.9622 326.4855 0019103 145.0730 302.6195 14.12666803422661
SRMSAT
1 37841U 11058D   19349.47084226  .00000308  00000-0  24427-4 0  9991
2 37841  19.9732  25.0579 0011945  12.5966 124.8486 14.10645584422103
M-CUBED/EXP-1 PRIME
1 37855U 11061F   19349.42536226  .00000716  00000-0  43698-4 0  9991
2 37855 101.7255 337.4037 0172149 263.9055  94.2519 15.05878550443827
HORYU 2
1 38340U 12025D   19349.11735648  .00000127  00000-0  26459-4 0  9999
2 38340  98.3080  32.8889 0010252 272.1779  87.8256 14.75787006407621
STRAND 1
1 39090U 13009E   19348.83172226 +.00000039 +00000-0 +28640-4 0  9996
2 39090 098.4692 191.6366 0010155 113.7917 246.4334 14.35109987356067
SOMP
1 39134U 13015E   19348.93793400  .00000887  00000-0  49108-4 0  9999
2 39134  64.8616 159.5470 0037816 273.9540  85.7265 15.20571837367849
BEESAT 3
1 39135U 13015F   19348.65508684 +.00000549 +00000-0 +36530-4 0  9997
2 39135 064.8649 181.3074 0042643 276.9785 082.6492 15.17786605367011
BEESAT 2
1 39136U 13015G   19348.82644147  .00000725  00000-0  45991-4 0  9999
2 39136  64.8688 185.1110 0030691 282.9897  76.7803 15.17209600367340
CUBEBUG 1
1 39153U 13018D   19348.98900275  .00000183  00000-0  30813-4 0  9990
2 39153  97.9820  86.1495 0016350 341.8363  18.2263 14.80638573358344
ZACUBE
1 39417U 13066B   19349.47327339  .00000170  00000-0  27663-4 0  9990
2 39417  97.5610 352.8598 0059328 163.1564 197.1638 14.81192161327659
TRITON 1
1 39427U 13066M   19349.27933890  .00000131  00000-0  29155-4 0  9999
2 39427  97.7004 315.7915 0112718 311.0853  48.0658 14.67919157324680
GOMX 1
1 39430U 13066Q   19349.40796726  .00000211  00000-0  46815-4 0  9994
2 39430  97.7705 294.3353 0152195  47.9403 313.4624 14.59323557322818
HUMSAT D
1 39433U 13066T   19349.38691813  .00000441  00000-0  48072-4 0  9997
2 39433  97.5319  29.3374 0032001  62.5726 297.8742 14.92326475329871
CUBEBUG 2
1 39440U 13066AA  19348.80353967  .00000138  00000-0  26276-4 0  9991
2 39440  97.6140 336.7784 0079159 222.4122 137.0954 14.75930080326392
FUNCUBE 1
1 39444U 13066AE  19349.10368905  .00000193  00000-0  29906-4 0  9991
2 39444  97.5574 354.6180 0058608 157.4751 202.9056 14.82026848326500
UWE-3
1 39446U 13066AG  19348.83940345  .00000132  00000-0  24201-4 0  9992
2 39446  97.5870 343.9842 0069587 194.3130 165.6112 14.78464154325739
SPROUT
1 39770U 14029E   19349.51520179  .00000389  00000-0  48969-4 0  9998
2 39770  97.8925  91.7369 0008185 209.3789 150.6966 14.87537822301568
UNISAT 6
1 40012U 14033C   19348.88807377  .00000142  00000-0  28622-4 0  9992
2 40012  97.7312 207.5333 0057064 238.9806 120.5792 14.74044232295080
DUCHIFAT 1
1 40021U 14033M   19349.03483332  .00000298  00000-0  36212-4 0  9997
2 40021  97.9323 274.2723 0012831 172.7860 187.3545 14.90761762298268
QB50P1
1 40025U 14033R   19349.05998286  .00000252  00000-0  32745-4 0  9999
2 40025  97.9099 268.4593 0012163 183.0902 177.0242 14.89037313298011
CHUBUSAT 1
1 40300U 14070C   19349.17792450  .00000528  00000-0  25781-4 0  9992
2 40300  97.3122  58.6702 0020796 141.1898 242.6792 15.22286916283329
NUDT-PHONESAT
1 40900U 15049B   19349.13152515  .00001813  00000-0  79140-4 0  9999
2 40900  97.4346 356.7514 0011068 277.3522 154.9461 15.23391295234978
ZDPS 2A
1 40901U 15049C   19349.39168826  .00000753  00000-0  40345-4 0  9997
2 40901  97.4604 352.6570 0012110 302.2477 163.3979 15.17978270234491
ZDPS 2B
1 40902U 15049D   19349.03494469  .00000825  00000-0  44006-4 0  9992
2 40902  97.4572 349.6621 0012194 300.9210 144.0038 15.17881664234415
XW-2A
1 40903U 15049E   19349.39735596  .00001474  00000-0  36035-4 0  9995
2 40903  97.3155  32.9983 0012435 207.8655 279.3859 15.42420105237942
KAITUO 1A
1 40904U 15049F   19349.40673012  .00000694  00000-0  40056-4 0  9993
2 40904  97.4712 348.4046 0013441 310.1524 180.5499 15.15537392234216
OBJECT G
1 40905U 15049G   19349.41367367  .00000285  00000-0  19083-4 0  9990
2 40905  97.4766 345.7799 0014424 305.0227 161.0244 15.14413990234078
XW-2C
1 40906U 15049H   19349.43644631  .00000390  00000-0  23853-4 0  9992
2 40906  97.4718 348.6033 0013551 300.1713 192.6880 15.15858415234224
XW-2D
1 40907U 15049J   19349.46107245  .00000689  00000-0  39224-4 0  9991
2 40907  97.4699 348.3136 0012655 296.3645 218.8421 15.16066489234245
LILACSAT 2
1 40908U 15049K   19349.04825685  .00000418  00000-0  26652-4 0  9992
2 40908  97.4841 346.5167 0014714 307.3215 125.0870 15.13914325233944
XW-2F
1 40910U 15049M   19349.10170161  .00000715  00000-0  38922-4 0  9997
2 40910  97.4647 350.2427 0013260 288.2006 144.6873 15.17591533234220
XW-2B
1 40911U 15049N   19349.08505787  .00000396  00000-0  24097-4 0  9994
2 40911  97.4717 348.6229 0012743 299.4772 100.9844 15.15991997234082
KAITUO 1B
1 40912U 15049P   19348.98205583  .00000976  00000-0  48533-4 0  9999
2 40912  97.4485 354.0453 0013242 266.9024 123.1312 15.19941627234546
TIANWANG 1C (TW-1C)
1 40926U 15051B   19349.40932337  .00011961  00000-0  15101-3 0  9999
2 40926  97.1128  35.5466 0008751  67.9690 303.2990 15.59667939238131
